Regional Weather Roundup
Issued by NWS

Home | Current Version | Previous Version | Graphics & Text | Print | Product List | Glossary On
Versions: 1 2 3 4 5 6 7 8 9 10 11 12 13 14 15 16 17 18 19 20 21 22 23 24 25 26 27 28 29 30 31 32 33 34 35 36 37 38 39 40 41 42 43 44 45 46 47 48 49 50
000
ASUS45 KABQ 260410
RWRNM
NEW MEXICO REGIONAL WEATHER ROUNDUP
NATIONAL WEATHER SERVICE ALBUQUERQUE NM
1000 PM MDT MON SEP 25 2017

NOTE: "FAIR" MEANS FEW OR NO CLOUDS BELOW 12,000 FEET AGL WITH NO
       SIGNIFICANT WEATHER OR OBSTRUCTIONS TO VISION.

      THIS PRODUCT IS RELEASED AS TWO VERSIONS.  ONE VERSION NEAR
      THE TOP OF THE HOUR CONTAINING PRELIMINARY DATA FROM ALBUQUERQUE
      AND OTHER STATIONS.  A FINAL VERSION WITH ADDITIONAL DATA IS
      ISSUED ABOUT 10 MINUTES AFTER THE HOUR.

NMZ501-503-504-510>518-260500-
NORTHWEST PLATEAU/NORTHCENTRAL MOUNTAINS

CITY           SKY/WX    TMP DP  RH WIND       PRES   REMARKS
FARMINGTON     FAIR      49  16  26 W3        30.03R
LOS ALAMOS     FAIR      54  10  17 SE7       30.09R
SANTA FE       FAIR      55  48  77 SE12      30.05R
TAOS           FAIR      44  25  47 E8        30.12R
ANGEL FIRE     CLOUDY    45  41  86 CALM      30.19R

$$
NMZ402-403-502-505>509-260500-
WESTCENTRAL MOUNTAINS/SOUTHWEST MOUNTAINS

CITY           SKY/WX    TMP DP  RH WIND       PRES   REMARKS
GALLUP         FAIR      47  17  30 CALM      30.06R
GRANTS         FAIR      49   7  18 N3        30.07S
SILVER CITY    FAIR      56  23  27 N9        29.97S

$$
NMZ407-409-411-412-260500-
SOUTHERN DESERTS

CITY           SKY/WX    TMP DP  RH WIND       PRES   REMARKS
DEMING         FAIR      63  25  23 NW7       29.90R
LAS CRUCES     FAIR      63  22  20 NW7       29.91R
HOLLOMAN AFB   FAIR      65  24  21 E5        29.90R
ALAMOGORDO     FAIR      64  23  20 E5        29.90S
T OR C         FAIR      72  21  14 S15       29.90R

$$
NMZ519>523-260500-
CENTRAL VALLEYS/CENTRAL HIGHLANDS

CITY           SKY/WX    TMP DP  RH WIND       PRES   REMARKS
ALBUQUERQUE    FAIR      65   7  10 N7        29.98R
DOUBLE EAGLE   CLEAR     52   9  17 W9        30.01R
MORIARTY ARPT  FAIR      58  52  80 E15G25    30.07R
CLINES CORNERS CLOUDY    52  49  89 E21G30    30.12R
BELEN          FAIR      60   6  11 CALM      29.96R
SOCORRO        FAIR      65  19  17 N7        29.93R

$$
NMZ524>526-539-540-260500-
SOUTHCENTRAL MOUNTAINS

CITY           SKY/WX    TMP DP  RH WIND       PRES   REMARKS
RUIDOSO        FAIR      55  45  67 NE5       30.09R

$$
NMZ527>531-260500-
NORTHEAST HIGHLANDS/NORTHEAST PLAINS

CITY           SKY/WX    TMP DP  RH WIND       PRES   REMARKS
LAS VEGAS      CLOUDY    49  48  97 NE15      30.14R
RATON          NOT AVBL
CLAYTON        CLOUDY    50  50 100 N12       30.11R

$$
NMZ532>537-260500-
EASTCENTRAL PLAINS

CITY           SKY/WX    TMP DP  RH WIND       PRES   REMARKS
SANTA ROSA     RAIN      58  54  87 N12G22    30.04R
TUCUMCARI      CLOUDY    60  54  80 NE15      30.02R
CANNON AFB     NOT AVBL
CLOVIS AIRPORT LGT RAIN  59  57  93 NE7       30.03R

$$
NMZ028-029-538-260500-
SOUTHEAST PLAINS

CITY           SKY/WX    TMP DP  RH WIND       PRES   REMARKS
ROSWELL        FAIR      69  64  84 S7        29.90R
ARTESIA        FAIR      68  66  94 S10       29.90R
CARLSBAD       FAIR      69  66  90 S8        29.89R
HOBBS          FAIR      63  59  88 SE6       29.94R


$$




USA.gov is the U.S. government's official web portal to all federal, state and local government web resources and services.